COSMOS 2460 (732)

Last updated on Sun Aug 31 2025 00:03:20 GMT+0000 (Coordinated Universal Time)

1 36402U 10007C 25240.36011249 -.00000075 00000+0 00000+0 0 9993 2 36402 65.5859 324.3662 0001987 202.6439 173.4577 2.13106339120490
UTC large
Height (km)
Speed (km/s)
/
Latitude / Longitude
Inclination (degrees)
Orbital Period (minutes)
Azimuth
Elevation
Range (km)
Doppler Factor

Next 0 passes for location: London (51.5072 / 0.1276)

Sorry there are no passes over London.